Regional Weather Roundup
Issued by NWS

Home | Current Version | Previous Version | Graphics & Text | Print | Product List | Glossary On
Versions: 1 2 3 4 5 6 7 8 9 10 11 12 13 14 15 16 17 18 19 20 21 22 23 24 25 26 27 28 29 30 31 32 33 34 35 36 37 38 39 40 41 42 43 44 45 46 47 48 49 50
000
ASUS45 KBOU 282307
RWRCO

WEATHER ROUNDUP FOR COLORADO
NATIONAL WEATHER SERVICE DENVER/BOULDER CO
500 PM MDT SAT MAR 28 2015

NOTE: "FAIR" INDICATES FEW OR NO CLOUDS BELOW 12000 FEET WITH NO
SIGNIFICANT WEATHER AND/OR OBSTRUCTIONS TO VISIBILITY.

COZ001>005-013-030-031-290000-
...NORTHWEST COLORADO...

CITY           SKY/WX    TMP DP  RH WIND       PRES   REMARKS
CRAIG          MOSUNNY   72  22  15 W28G35    30.04F
HAYDEN         MOSUNNY   68  21  17 W17       30.05F
MEEKER         MOSUNNY   69  22  16 W13       30.07F
MOUNT WERNER   NOT AVBL
STEAMBOAT SPGS MOSUNNY   66  24  20 W20G29    30.07F
WALDEN         MOSUNNY   59  19  21 W24G36    30.11F
$$

COZ006>008-011-290000-
...WEST CENTRAL VALLEYS...

CITY           SKY/WX    TMP DP  RH WIND       PRES   REMARKS
GRAND JUNCTION SUNNY     77  22  13 W14G20    30.03F
MONTROSE       MOSUNNY   75  20  12 NW9       30.09F
EAGLE          MOSUNNY   72  18  13 SW21G30   30.10F
RIFLE          MOSUNNY   75  22  13 SW18G31   30.04F
DELTA          SUNNY     78  20  11 W3        30.05F
NUCLA          SUNNY     73  16  11 SW13G22   30.14F
$$

COZ017>023-064>068-290000-
...SOUTHWEST COLORADO...

CITY           SKY/WX    TMP DP  RH WIND       PRES   REMARKS
DURANGO        SUNNY     70  18  13 W16G26    30.16S
CORTEZ         SUNNY     72  16  12 NW13      30.15F
PAGOSA SPRINGS MOSUNNY   68  13  12 SW16G22   30.19F
TELLURIDE      SUNNY     59  15  17 W12G18    30.30F
WOLF CREEK PAS PTSUNNY   41  19  42 SW17G23   30.44F
$$

COZ009-010-012-014-032>034-037-058>063-290000-
...CENTRAL COLORADO...

CITY           SKY/WX    TMP DP  RH WIND       PRES   REMARKS
ASPEN          MOSUNNY   63  20  19 SW13G23   30.16S
BUENA VISTA    MOSUNNY   65  11  12 W14G25    30.16S
COPPER MTN     MOSUNNY   45  10  24 W28G40    30.36F HAZE
BERTHOUD PASS  FAIR      36  32  87 W23G40    30.37R
COTTONWOOD PAS MOSUNNY   57   3  11 W12G25    30.26F
GUNNISON       SUNNY     64  19  17 W18G25    30.21F
KREMMLING      PTSUNNY   63  14  15 SW12      30.12S
LEADVILLE      MOSUNNY   49  15  25 W15       30.25F
SALIDA         MOSUNNY   69  12  11 SW15G22   30.20F
SUNLIGHT       PTSUNNY   46  23  39 CALM      30.36S
WILKERSON PASS SUNNY     48  10  21 W12G23    30.33F
$$

COZ069>075-290000-
...SAN LUIS VALLEY/SANGRE DE CRISTO MOUNTAINS...

CITY           SKY/WX    TMP DP  RH WIND       PRES   REMARKS
ALAMOSA        SUNNY     69  13  11 SW12G17   30.13F
LA VETA PASS   SUNNY     54  18  24 SW10G25   30.28F
SAGUACHE       SUNNY     68  14  12 NW17G29   30.16F
$$

COZ035-036-038>040-290000-
...NORTHERN COLORADO FRONT RANGE...

CITY           SKY/WX    TMP DP  RH WIND       PRES   REMARKS
DENVER INTL AP MOSUNNY   76  20  12 W24G31    29.92F
DMNS CITY PARK   N/A     76  20  12 W18       29.93S
AURORA         MOSUNNY   75  21  13 NW16G23   29.95F
FRONT RANGE AP MOSUNNY   77  23  13 W21G28      N/A
ERIE MUNI ARPT SUNNY     78  18  10 W14G22    29.92F
BOULDER MUN AP SUNNY     77  23  13 W24G31    29.94R
CENTENNIAL     MOSUNNY   75  17  11 W18       29.97S
BROOMFIELD     MOSUNNY   75  21  13 W25       29.96F
FORT COLLINS   SUNNY     77  23  13 W15       29.90S
LONGMONT       SUNNY     77  21  12 W8G25     29.93S
$$

COZ041-046-047-076>085-087-088-290000-
...PIKES PEAK/PALMER DIVIDE AND SOUTHERN FOOTHILLS...

CITY           SKY/WX    TMP DP  RH WIND       PRES   REMARKS
COLO. SPRINGS  MOSUNNY   76  15  10 SW10G18   30.00F
A. F. ACADEMY  MOSUNNY   73   4   7 W15       30.01R
ELLICOTT       MOSUNNY  N/A N/A N/A SW17G24   29.99F
FALCON         MOSUNNY   72  13  10 SW12G20   30.04F
FORT CARSON    MOSUNNY   76  21  12 SW18G31   29.96F
LIMON          SUNNY     74  18  12 S13       29.95F
MONUMENT HILL  SUNNY     70  14  11 NW18      30.04S
TRINIDAD       SUNNY     76  20  12 E8        30.01F
$$

COZ042>045-048>051-090-091-290000-
...NORTHEAST COLORADO...

CITY           SKY/WX    TMP DP  RH WIND       PRES   REMARKS
GREELEY ARPT   SUNNY     81  21  11 NW12      29.87F
AKRON          SUNNY     79  23  12 W17G24    29.88F
BURLINGTON     SUNNY     79  19  10 SW8       29.92F
WRAY           SUNNY     83  21  10 SW13G20   29.85F
STERLING       SUNNY     82  27  13 SW15G21   29.82F
HOLYOKE        NOT AVBL
FORT MORGAN    SUNNY     80 -30   1 SW10      29.88F
$$

COZ086-089-092>099-290000-
...SOUTHEAST COLORADO...

CITY           SKY/WX    TMP DP  RH WIND       PRES   REMARKS
PUEBLO         SUNNY     80  22  11 SW10G18   29.92F
LA JUNTA       SUNNY     81  21  11 VRB3      29.92F
LAMAR          SUNNY     81  21  11 MISG      29.90F
SPRINGFIELD      N/A     78  20  11 SW9       29.96F
$$



USA.gov is the U.S. government's official web portal to all federal, state and local government web resources and services.